Date String (YYYY-MM-DD hh:mm:ss) UTC,Instrument flags,absolute air pressure of the measurement (hPa),sample flow rate (lpm),inlet stack bypass flow (lpm),air temperature of the measurement (°C),ambient temperature measured by the external sensor (°C),aerosol sample conditioner tube jacket temperature (°C),OPC LED temperature (°C),internal box temperature (°C),relative humidity of the measurement (%),span deviation,mass concentration of particles derived from Lorenz-Mie calculation of OPC scattering (μg/m³),mass concentration of particles derived from Lorenz-Mie calculation of OPC scattering (μg/m³),mass concentration of particles derived from Lorenz-Mie calculation of OPC scattering (μg/m³)
DateTimeUTC,F1_M11,P_M11,Q1_M11,Q2_M11,T1_M11,T2_M11,T3_M11,T4_M11,T5_M11,U1_M11,ZSPAN_M11,X0_M11,X2_M11,X1_M11
2024-01-09 19:00:00,SystemResetWarning,0816.4,5.00,000.00,020.1,019.5,000.0,028.4,021.5,9.8,0000.0,0006.59,0003.26,0002.51
2024-01-09 19:01:00,SystemResetWarning,0816.4,5.00,000.00,020.1,019.5,000.0,028.4,021.5,9.7,0000.0,0006.27,0003.21,0002.49
2024-01-09 19:02:00,SystemResetWarning,0816.4,4.99,000.00,020.1,019.5,000.0,028.4,021.5,9.6,0000.0,0006.68,0003.25,0002.51
2024-01-09 19:03:00,SystemResetWarning,0816.2,5.00,000.00,020.1,019.5,000.0,028.4,021.5,9.5,0000.0,0006.91,0003.34,0002.61
2024-01-09 19:04:00,SystemResetWarning,0816.2,5.00,000.00,020.1,019.5,000.0,028.4,021.5,9.4,0000.0,0006.88,0003.38,0002.69
2024-01-09 19:05:00,SystemResetWarning,0816.3,5.00,000.00,020.1,019.5,000.0,028.4,021.5,9.3,0000.0,0007.40,0003.51,0002.83
2024-01-09 19:06:00,SystemResetWarning,0816.3,5.00,000.00,020.1,019.5,000.0,028.4,021.5,9.2,0000.0,0007.68,0003.66,0002.99
2024-01-09 19:07:00,SystemResetWarning,0816.4,5.00,000.00,020.1,019.5,000.0,028.4,021.5,9.1,0000.0,0007.80,0003.76,0003.11
2024-01-09 19:08:00,SystemResetWarning,0816.5,5.00,000.00,020.1,019.5,000.0,028.4,021.5,9.1,0000.0,0008.50,0003.84,0003.18
2024-01-09 19:09:00,SystemResetWarning,0816.4,5.00,000.00,020.1,019.5,000.0,028.4,021.5,9.0,0000.0,0008.89,0003.93,0003.23
2024-01-09 19:10:00,SystemResetWarning,0816.2,5.00,000.00,020.1,019.5,000.0,028.4,021.4,9.0,0000.0,0009.15,0004.06,0003.30
2024-01-09 19:11:00,SystemResetWarning,0816.3,5.00,000.00,020.2,019.5,000.0,028.4,021.4,9.0,0000.0,0009.60,0004.21,0003.38
2024-01-09 19:12:00,SystemResetWarning,0816.6,5.00,000.00,020.1,019.5,000.0,028.4,021.4,9.0,0000.0,0010.48,0004.36,0003.46
2024-01-09 19:13:00,SystemResetWarning,0816.7,5.00,000.00,020.1,019.5,000.0,028.4,021.5,8.9,0000.0,0011.59,0004.44,0003.52
2024-01-09 19:14:00,SystemResetWarning,0816.7,5.00,000.00,020.1,019.5,000.0,028.4,021.4,8.9,0000.0,0011.76,0004.48,0003.56
2024-01-09 19:15:00,SystemResetWarning,0816.7,5.00,000.00,020.1,019.5,000.0,028.4,021.4,8.9,0000.0,0012.26,0004.56,0003.61
2024-01-09 19:16:00,SystemResetWarning,0816.7,5.00,000.00,020.1,019.5,000.0,028.4,021.4,9.0,0000.0,0012.26,0004.58,0003.65
2024-01-09 19:17:00,SystemResetWarning,0816.7,4.99,000.00,020.1,019.5,000.0,028.4,021.4,9.0,0000.0,0012.28,0004.62,0003.68
2024-01-09 19:18:00,SystemResetWarning,0816.6,4.99,000.00,020.1,019.5,000.0,028.4,021.4,9.1,0000.0,0012.65,0004.69,0003.72
2024-01-09 19:19:00,SystemResetWarning,0816.5,5.00,000.00,020.1,019.4,000.0,028.4,021.4,9.2,0000.0,0012.98,0004.76,0003.77
2024-01-09 19:20:00,SystemResetWarning,0816.5,5.00,000.00,020.1,019.4,000.0,028.5,021.4,9.2,0000.0,0012.69,0004.77,0003.82
2024-01-09 19:21:00,SystemResetWarning,0816.6,5.01,000.00,020.1,019.4,000.0,028.5,021.4,9.2,0000.0,0013.05,0004.77,0003.84
2024-01-09 19:22:00,SystemResetWarning,0816.6,5.01,000.00,020.1,019.4,000.0,028.4,021.4,9.1,0000.0,0013.15,0004.77,0003.85
2024-01-09 19:23:00,SystemResetWarning,0816.5,5.00,000.00,020.1,019.4,000.0,028.4,021.4,9.1,0000.0,0012.70,0004.78,0003.86
2024-01-09 19:24:00,SystemResetWarning,0816.5,4.99,000.00,020.1,019.4,000.0,028.4,021.4,9.0,0000.0,0011.74,0004.75,0003.87
2024-01-09 19:25:00,SystemResetWarning,0816.5,4.99,000.00,020.1,019.4,000.0,028.4,021.4,9.0,0000.0,0011.67,0004.74,0003.86
2024-01-09 19:26:00,SystemResetWarning,0816.4,4.99,000.00,020.1,019.5,000.0,028.4,021.4,9.0,0000.0,0011.53,0004.73,0003.85
2024-01-09 19:27:00,SystemResetWarning,0816.4,5.00,000.00,020.1,019.5,000.0,028.4,021.4,9.0,0000.0,0012.01,0004.71,0003.83
2024-01-09 19:28:00,SystemResetWarning,0816.4,5.00,000.00,020.1,019.5,000.0,028.4,021.4,8.9,0000.0,0012.22,0004.62,0003.80
2024-01-09 19:29:00,SystemResetWarning,0816.6,5.00,000.00,020.1,019.5,000.0,028.4,021.4,8.9,0000.0,0012.17,0004.56,0003.78
2024-01-09 19:30:00,SystemResetWarning,0816.5,5.00,000.00,020.1,019.4,000.0,028.4,021.4,8.9,0000.0,0011.74,0004.52,0003.76
2024-01-09 19:31:00,SystemResetWarning,0816.2,5.00,000.00,020.1,019.4,000.0,028.4,021.4,8.9,0000.0,0011.46,0004.47,0003.72
2024-01-09 19:32:00,SystemResetWarning,0816.1,5.01,000.00,020.1,019.4,000.0,028.4,021.4,8.8,0000.0,0011.97,0004.43,0003.70
2024-01-09 19:33:00,SystemResetWarning,0816.2,5.00,000.00,020.1,019.4,000.0,028.4,021.4,8.8,0000.0,0011.93,0004.38,0003.68
2024-01-09 19:34:00,SystemResetWarning,0816.2,5.01,000.00,020.1,019.4,000.0,028.4,021.3,8.8,0000.0,0012.48,0004.34,0003.66
2024-01-09 19:35:00,SystemResetWarning,0816.2,5.00,000.00,020.1,019.4,000.0,028.4,021.3,8.8,0000.0,0012.20,0004.30,0003.65
2024-01-09 19:36:00,SystemResetWarning,0816.2,4.99,000.00,020.1,019.4,000.0,028.4,021.3,8.8,0000.0,0012.22,0004.30,0003.64
2024-01-09 19:37:00,SystemResetWarning,0816.1,4.99,000.00,020.1,019.4,000.0,028.4,021.3,8.8,0000.0,0011.93,0004.29,0003.63
2024-01-09 19:38:00,SystemResetWarning,0816.1,5.00,000.00,020.1,019.4,000.0,028.4,021.3,8.8,0000.0,0011.54,0004.28,0003.63
2024-01-09 19:39:00,SystemResetWarning,0816.2,5.00,000.00,020.1,019.4,000.0,028.4,021.2,8.8,0000.0,0011.54,0004.28,0003.63
2024-01-09 19:40:00,SystemResetWarning,0816.1,5.00,000.00,020.1,019.3,000.0,028.4,021.2,8.8,0000.0,0012.18,0004.30,0003.63
2024-01-09 19:41:00,SystemResetWarning,0816.2,5.00,000.00,020.0,019.3,000.0,028.4,021.2,8.7,0000.0,0011.87,0004.30,0003.62
2024-01-09 19:42:00,SystemResetWarning,0816.2,5.00,000.00,020.0,019.3,000.0,028.4,021.2,8.8,0000.0,0011.96,0004.39,0003.62
2024-01-09 19:43:00,SystemResetWarning,0816.2,5.01,000.00,020.0,019.3,000.0,028.4,021.2,8.8,0000.0,0011.43,0004.44,0003.64
2024-01-09 19:44:00,SystemResetWarning,0816.2,5.01,000.00,020.0,019.3,000.0,028.4,021.2,8.9,0000.0,0011.02,0004.51,0003.67
2024-01-09 19:45:00,SystemResetWarning,0816.2,5.01,000.00,020.0,019.3,000.0,028.4,021.2,8.9,0000.0,0010.64,0004.61,0003.73
2024-01-09 19:46:00,SystemResetWarning,0816.2,4.99,000.00,020.0,019.3,000.0,028.4,021.2,8.9,0000.0,0010.96,0004.71,0003.78
2024-01-09 19:47:00,SystemResetWarning,0816.2,4.99,000.00,020.0,019.3,000.0,028.4,021.2,9.0,0000.0,0011.32,0004.79,0003.82
2024-01-09 19:48:00,SystemResetWarning,0816.2,5.00,000.00,020.0,019.3,000.0,028.4,021.2,9.0,0000.0,0012.21,0004.88,0003.87
2024-01-09 19:49:00,SystemResetWarning,0816.1,5.01,000.00,020.0,019.3,000.0,028.4,021.1,9.0,0000.0,0012.51,0004.97,0003.94
2024-01-09 19:50:00,SystemResetWarning,0816.1,5.01,000.00,020.0,019.3,000.0,028.3,021.1,9.0,0000.0,0012.32,0005.14,0004.02
2024-01-09 19:51:00,SystemResetWarning,0816.1,5.00,000.00,020.0,019.3,000.0,028.3,021.2,9.0,0000.0,0012.05,0005.29,0004.09
2024-01-09 19:52:00,SystemResetWarning,0816.0,4.99,000.00,020.0,019.3,000.0,028.3,021.1,9.0,0000.0,0012.42,0005.41,0004.15
2024-01-09 19:53:00,SystemResetWarning,0816.1,4.99,000.00,020.0,019.3,000.0,028.3,021.0,9.0,0000.0,0012.63,0005.48,0004.23
2024-01-09 19:54:00,SystemResetWarning,0816.2,5.00,000.00,020.0,019.2,000.0,028.3,021.0,8.9,0000.0,0013.22,0005.59,0004.30
2024-01-09 19:55:00,SystemResetWarning,0816.1,5.00,000.00,019.9,019.2,000.0,028.3,021.0,8.9,0000.0,0014.17,0005.74,0004.34
2024-01-09 19:56:00,SystemResetWarning,0816.1,4.99,000.00,019.9,019.2,000.0,028.3,021.0,8.9,0000.0,0014.78,0005.84,0004.36
2024-01-09 19:57:00,SystemResetWarning,0816.1,5.00,000.00,019.9,019.1,000.0,028.3,021.0,8.9,0000.0,0015.49,0005.96,0004.37
2024-01-09 19:58:00,SystemResetWarning,0816.1,5.00,000.00,019.9,019.1,000.0,028.3,021.0,8.9,0000.0,0015.55,0006.04,0004.39
2024-01-09 19:59:00,SystemResetWarning,0816.1,5.00,000.00,019.9,019.1,000.0,028.3,021.0,8.9,0000.0,0015.21,0006.06,0004.39
